Corning, AR

12:03 AM CDT on July 22, 2017 (GMT -0500)
Corning

Weather History for K4M9 - November, 2012

Change the Weather History Date:

Friday, November 2, 2012

  Actual Average (KARG) Record (KARG)
Temperature  
Mean Temperature 54 °F -  
Max Temperature 66 °F 62 °F 82 °F (2003)
Min Temperature 41 °F 45 °F 30 °F (2006)
Degree Days  
Heating Degree Days 12    
Growing Degree Days 4 (Base 50)    
Moisture  
Dew Point 39 °F    
Average Humidity 62    
Maximum Humidity 93    
Minimum Humidity 30    
Precipitation  
Precipitation 0.00 in - - ()
Sea Level Pressure  
Sea Level Pressure 29.99 in    
Wind  
Wind Speed 8 mph (NE)    
Max Wind Speed 14 mph    
Max Gust Speed -    
Visibility 5 miles    
Events Fog    
Averages and records for this station are not official NWS values.
T = Trace of Precipitation, MM = Missing Value Source: NWS Daily Summary

Daily Weather History Graph

Daily Weather History Graph

Search for Another Location

Airport or City:

Trip Planner

Search our weather history database for the weather conditions in past years. The results will help you decide how hot, cold, wet, or windy it might be!

Date:

Astronomy

Nov. 02, 2012 Rise Set
Actual Time 7:27 AM CDT 6:04 PM CDT
Civil Twilight 7:00 AM CDT 6:31 PM CDT
Nautical Twilight 6:29 AM CDT 7:01 PM CDT
Astronomical Twilight 5:59 AM CDT 7:31 PM CDT
Moon 8:55 PM CDT (11/2) 10:44 AM CDT (11/2)
Length of Visible Light 11h 30m
Length of Day
10h 37m
Waning Gibbous, 87% of the Moon is Illuminated
Nov 2
Waning Gibbous
Nov 6
Last Quarter
Nov 13
New
Nov 20
First Quarter
Nov 28
Full

Hourly Weather History & Observations

Time (CDT) Temp. Windchill Dew Point Humidity Pressure Visibility Wind Dir Wind Speed Gust Speed Precip Events Conditions
12:15 AM 50.0 °F - 42.8 °F 76% 29.93 in 0.8 mi SW 9.2 mph - N/A   Haze
12:35 AM 50.0 °F - 42.8 °F 76% 29.93 in 0.8 mi SW 10.4 mph - N/A   Haze
12:55 AM 50.0 °F - 42.8 °F 76% 29.92 in 0.8 mi SW 9.2 mph - N/A   Haze
1:15 AM 50.0 °F - 42.8 °F 76% 29.92 in 1.0 mi SW 9.2 mph - N/A   Haze
1:35 AM 48.2 °F - 42.8 °F 82% 29.92 in 1.0 mi SW 8.1 mph - N/A   Haze
1:55 AM 48.2 °F - 41.0 °F 76% 29.92 in 1.0 mi SW 8.1 mph - N/A   Haze
2:15 AM 48.2 °F - 41.0 °F 76% 29.93 in 0.8 mi SW 6.9 mph - N/A   Haze
2:35 AM 48.2 °F - 41.0 °F 76% 29.93 in 0.8 mi WSW 5.8 mph - N/A   Haze
2:55 AM 46.4 °F 42.9 °F 41.0 °F 81% 29.93 in 1.0 mi SW 6.9 mph - N/A   Haze
3:15 AM 46.4 °F 42.4 °F 41.0 °F 81% 29.93 in 0.8 mi SW 8.1 mph - N/A   Mist
3:35 AM 48.2 °F - 41.0 °F 76% 29.93 in 0.8 mi WSW 6.9 mph - N/A   Haze
3:55 AM 46.4 °F 44.3 °F 41.0 °F 81% 29.93 in 0.5 mi West 4.6 mph - N/A Fog Fog
4:15 AM 44.6 °F 40.7 °F 41.0 °F 87% 29.93 in 1.2 mi WSW 6.9 mph - N/A   Mist
4:35 AM 44.6 °F 40.7 °F 41.0 °F 87% 29.94 in 1.2 mi WSW 6.9 mph - N/A   Mist
4:55 AM 44.6 °F 43.1 °F 41.0 °F 87% 29.94 in 0.8 mi West 3.5 mph - N/A   Mist
5:15 AM 44.6 °F 43.1 °F 41.0 °F 87% 29.94 in 0.5 mi WSW 3.5 mph - N/A Fog Fog
5:35 AM 44.6 °F 43.1 °F 41.0 °F 87% 29.94 in 0.5 mi WSW 3.5 mph - N/A Fog Fog
5:55 AM 44.6 °F - 41.0 °F 87% 29.95 in 0.5 mi Calm Calm - N/A Fog Fog
6:15 AM 42.8 °F 41.1 °F 39.2 °F 87% 29.95 in 0.8 mi North 3.5 mph - N/A   Mist
6:35 AM 44.6 °F 42.2 °F 41.0 °F 87% 29.96 in 0.5 mi North 4.6 mph - N/A Fog Fog
6:55 AM 44.6 °F 42.2 °F 41.0 °F 87% 29.98 in 0.5 mi North 4.6 mph - N/A Fog Fog
7:15 AM 41.0 °F 38.0 °F 39.2 °F 93% 29.98 in 0.5 mi NNW 4.6 mph - N/A Fog Fog
7:35 AM 41.0 °F 38.0 °F 39.2 °F 93% 30.00 in 0.2 mi NW 4.6 mph - N/A Fog Fog
7:55 AM 41.0 °F 38.0 °F 39.2 °F 93% 30.01 in 0.2 mi NNW 4.6 mph - N/A Fog Fog
8:15 AM 44.6 °F 42.2 °F 41.0 °F 87% 30.03 in 0.2 mi NNW 4.6 mph - N/A Fog Fog
8:35 AM 48.2 °F - 42.8 °F 82% 30.04 in 0.2 mi Calm Calm - N/A   Haze
8:55 AM 50.0 °F - 42.8 °F 76% 30.04 in 0.2 mi North 4.6 mph - N/A   Haze
9:15 AM 51.8 °F - 41.0 °F 67% 30.05 in 0.2 mi North 4.6 mph - N/A   Haze
9:35 AM 53.6 °F - 41.0 °F 62% 30.06 in 0.2 mi NE 5.8 mph - N/A   Haze
9:55 AM 53.6 °F - 39.2 °F 58% 30.06 in 0.5 mi NE 9.2 mph - N/A   Haze
10:15 AM 55.4 °F - 39.2 °F 54% 30.07 in 1.0 mi NE 10.4 mph - N/A   Haze
10:35 AM 55.4 °F - 39.2 °F 54% 30.06 in 2.5 mi NE 11.5 mph - N/A   Haze
10:55 AM 57.2 °F - 39.2 °F 51% 30.06 in 10.0 mi NE 12.7 mph - N/A   Unknown
11:15 AM 57.2 °F - 37.4 °F 48% 30.05 in 9.0 mi ENE 12.7 mph - N/A   Unknown
11:35 AM 59.0 °F - 37.4 °F 45% 30.05 in 7.0 mi NE 13.8 mph - N/A   Unknown
11:55 AM 59.0 °F - 37.4 °F 45% 30.05 in 10.0 mi NE 11.5 mph - N/A   Unknown
12:15 PM 60.8 °F - 39.2 °F 45% 30.03 in 10.0 mi ENE 11.5 mph - N/A   Unknown
12:35 PM 62.6 °F - 37.4 °F 39% 30.03 in 10.0 mi ENE 12.7 mph - N/A   Unknown
12:55 PM 62.6 °F - 39.2 °F 42% 30.03 in 8.0 mi ENE 9.2 mph - N/A   Unknown
1:15 PM 64.4 °F - 39.2 °F 40% 30.02 in 9.0 mi NE 10.4 mph - N/A   Unknown
1:35 PM 64.4 °F - 39.2 °F 40% 30.01 in 6.0 mi NE 10.4 mph - N/A   Haze
1:55 PM 64.4 °F - 39.2 °F 40% 30.01 in 3.0 mi NE 10.4 mph - N/A   Haze
2:15 PM 64.4 °F - 37.4 °F 37% 30.01 in 4.0 mi ENE 5.8 mph - N/A   Haze
2:35 PM 64.4 °F - 37.4 °F 37% 30.00 in 7.0 mi ENE 8.1 mph - N/A   Unknown
2:55 PM 64.4 °F - 37.4 °F 37% 30.00 in 9.0 mi East 6.9 mph - N/A   Unknown
3:15 PM 66.2 °F - 37.4 °F 35% 30.00 in 6.0 mi East 8.1 mph - N/A   Haze
3:35 PM 66.2 °F - 39.2 °F 37% 30.00 in 6.0 mi ENE 5.8 mph - N/A   Haze
3:55 PM 64.4 °F - 39.2 °F 40% 30.00 in 10.0 mi ENE 9.2 mph - N/A   Unknown
4:15 PM 66.2 °F - 37.4 °F 35% 29.99 in 9.0 mi ENE 9.2 mph - N/A   Unknown
4:35 PM 64.4 °F - 35.6 °F 34% 29.99 in 9.0 mi ENE 8.1 mph - N/A   Unknown
4:55 PM 64.4 °F - 32.0 °F 30% 29.99 in 10.0 mi ENE 9.2 mph - N/A   Unknown
5:15 PM 62.6 °F - 32.0 °F 32% 29.99 in 10.0 mi ENE 9.2 mph - N/A   Unknown
5:35 PM 59.0 °F - 33.8 °F 39% 29.99 in 10.0 mi ENE 8.1 mph - N/A   Unknown
5:55 PM 57.2 °F - 35.6 °F 44% 29.99 in 10.0 mi ENE 8.1 mph - N/A   Unknown
6:15 PM 57.2 °F - 35.6 °F 44% 30.00 in 10.0 mi East 8.1 mph - N/A   Unknown
6:55 PM 53.6 °F - 37.4 °F 54% 30.01 in 10.0 mi ENE 8.1 mph - N/A   Unknown
7:15 PM 53.6 °F - 37.4 °F 54% 30.01 in 10.0 mi East 8.1 mph - N/A   Unknown
7:35 PM 53.6 °F - 37.4 °F 54% 30.01 in 10.0 mi ENE 5.8 mph - N/A   Unknown
7:55 PM 53.6 °F - 37.4 °F 54% 30.02 in 8.0 mi ENE 5.8 mph - N/A   Unknown
8:15 PM 53.6 °F - 37.4 °F 54% 30.01 in 10.0 mi ENE 6.9 mph - N/A   Unknown
8:35 PM 51.8 °F - 37.4 °F 58% 30.01 in 10.0 mi ENE 5.8 mph - N/A   Unknown
8:55 PM 50.0 °F - 37.4 °F 62% 30.00 in 10.0 mi ENE 8.1 mph - N/A   Unknown
9:15 PM 51.8 °F - 37.4 °F 58% 30.00 in 10.0 mi ENE 8.1 mph - N/A   Unknown
9:35 PM 51.8 °F - 37.4 °F 58% 30.01 in 10.0 mi East 6.9 mph - N/A   Unknown
9:55 PM 51.8 °F - 37.4 °F 58% 30.01 in 10.0 mi ENE 5.8 mph - N/A   Unknown
10:15 PM 50.0 °F - 37.4 °F 62% 30.01 in 8.0 mi ENE 6.9 mph - N/A   Unknown
10:35 PM 50.0 °F - 37.4 °F 62% 30.00 in 8.0 mi ENE 6.9 mph - N/A   Unknown
10:55 PM 50.0 °F - 37.4 °F 62% 30.00 in 7.0 mi ENE 8.1 mph - N/A   Unknown
11:15 PM 50.0 °F - 37.4 °F 62% 30.00 in 6.0 mi NE 6.9 mph - N/A   Haze
11:35 PM 48.2 °F - 37.4 °F 66% 30.00 in 6.0 mi NE 8.1 mph - N/A   Haze
11:55 PM 48.2 °F - 37.4 °F 66% 30.00 in 5.0 mi NE 8.1 mph - N/A   Haze